Vertical_Velocity
3 3 -4 -12 0 10 15 -6 3 -2 -12 1 19 73 -6 -5 3 1 -2 1 2 5 -0 -2 2 -1 -1 1 0 -1 -0 1 2 -0 -1 -0 -1 -0
1 2 -3 5 5 -9 7 12 -5 -10 4 -19 11 36 1 -3 5 -0 -2 2 3 3 1 -2 1 -2 -0 1 1 -2 2 2 2 -1 -2 -1 -2 0
1 -2 1 0 -1 -3 5 6 9 6 1 -9 -19 13 56 1 10 -3 -2 2 2 7 -2 2 1 -1 1 -0 1 -2 -1 1 2 1 -1 -1 -2 -1
-2 1 -1 -0 1 -2 -3 5 2 -4 10 2 -8 -5 21 13 3 -10 -0 3 2 3 -5 3 1 -0 0 1 -0 0 -1 1 3 1 0 0 -1 -0
-5 -2 2 -1 -2 -2 -0 -0 -6 1 2 5 6 7 -6 24 20 -9 4 1 5 1 3 4 2 1 -0 -0 0 -1 -2 0 3 1 -1 1 -0 -2
-2 -2 1 -3 2 7 -3 2 3 3 4 -2 3 -3 -7 -2 26 25 -4 -2 -4 0 2 3 2 -0 2 -1 5 1 -3 0 1 2 2 0 2 -2
7 2 -2 1 4 2 -3 2 0 1 -4 -2 9 4 3 2 3 14 23 8 -7 2 -4 -5 -4 1 -5 -1 3 4 -0 -4 1 -0 3 -1 -0 -1
-2 2 6 4 4 0 -2 -1 1 -2 3 -4 -2 10 4 -1 15 6 15 -1 -26 5 2 2 -3 -6 4 -3 -3 5 -0 -1 -2 -2 1 0 0 -1
-1 -1 -1 3 5 2 -2 -3 -3 -2 -3 -1 -0 -1 1 14 -5 6 19 4 -7 -7 -2 2 4 -7 -8 2 6 -1 2 2 3 2 0 3 -1 0
3 0 2 0 3 -0 -1 -4 3 3 -2 -3 2 3 3 -5 9 1 15 37 23 10 16 -7 -3 -7 -1 2 7 7 -2 -1 3 3 1 1 1 0
-1 -1 -4 -2 2 -5 -3 1 -2 -1 -1 -2 -7 8 5 11 11 2 -2 -5 9 -9 5 3 2 -5 -4 -1 4 4 3 0 3 -0 0 2 3 -0
2 2 2 -0 -1 -5 -1 -1 -2 5 2 3 3 3 3 1 18 -1 2 -9 13 7 -1 7 1 -4 -6 -3 -0 2 1 -3 -0 2 -0 0 -0 -1
-1 -1 2 4 1 -1 -0 1 8 -1 1 1 1 -4 -3 4 -2 13 7 1 2 2 1 -6 -9 -4 4 -4 6 -1 -3 -3 1 4 -4 -3 -1 -1
2 0 -0 0 1 3 -1 -1 1 -0 0 -0 -1 -7 3 -4 -1 14 14 16 7 2 -2 2 1 -3 4 -6 -5 1 2 -1 -7 1 -0 3 2 1
-1 0 -2 -1 -1 -1 1 1 -1 -5 -6 -8 -2 -1 -2 9 8 -9 10 13 20 3 -1 -2 -3 -1 5 2 10 -2 14 -8 3 -3 7 -9 -0 9
0 1 1 -1 -2 -1 -4 -5 -3 -4 2 9 5 7 2 0 -0 3 -7 13 5 9 2 4 8 -7 -1 11 -5 5 4 -9 2 -8 5 3 -4 -1
-2 -2 0 -1 -1 1 -0 -3 -4 -2 -3 -0 1 -2 -2 -0 3 5 1 -2 -3 7 7 -0 9 -6 6 8 -2 4 6 1 2 7 -3 5 -7 1
-3 -2 0 -0 1 0 -2 -3 0 2 5 1 5 2 -4 -5 5 3 7 -9 -4 -2 -10 2 6 -1 -3 -10 -3 -3 11 12 1 10 -1 1 -8 0
-4 -2 -2 -2 -1 -3 -3 -2 -0 4 5 2 1 1 0 -3 2 3 3 5 -5 -1 5 6 -4 0 -7 -7 -4 -2 2 4 5 -3 2 0 -1 8
-4 -5 -2 0 -4 -5 -4 -3 -1 -4 -4 -3 -4 -1 1 1 -7 -3 0 0 1 8 11 5 -6 -11 -18 -3 -3 -4 2 -1 -2 8 1 11 -6 7
-3 -5 -3 -2 -1 1 1 -2 -0 -3 2 5 1 -3 0 -4 -2 -6 -0 0 5 3 2 -4 -12 19 17 14 -0 -12 -1 6 8 6 2 8 6 3
3 2 0 -6 -8 -2 -2 -1 -2 -2 -2 -6 -3 3 4 1 -4 5 1 1 -7 -1 -4 14 10 12 9 -11 2 -0 3 1 8 9 -1 14 4 -6
-3 -2 -2 1 1 -3 -4 -3 -2 -2 -5 -3 -2 -0 2 -8 -2 1 -1 2 -1 -1 4 1 -9 4 6 -2 8 -9 -3 0 5 -0 -1 6 -4 -0
Height
2960 2967 2973 2980 2985 2989 2992 3001 3011 3017 3020 3028 3033 3042 3054 3064 3075 3082 3088 3095 3102 3108 3114 3120 3126 3132 3136 3140 3143 3146 3150 3153 3155 3156 3157 3158 3158 3157
2952 2958 2965 2971 2977 2985 2988 2994 3001 3011 3017 3021 3027 3033 3044 3056 3068 3076 3082 3090 3096 3102 3107 3114 3120 3127 3132 3137 3140 3143 3146 3149 3151 3153 3155 3156 3157 3156
2945 2948 2956 2963 2969 2977 2982 2989 2995 3004 3009 3016 3024 3026 3034 3046 3059 3067 3076 3083 3089 3095 3102 3108 3114 3121 3127 3132 3136 3139 3143 3145 3148 3150 3152 3154 3155 3154
2938 2940 2946 2953 2961 2968 2976 2982 2990 2997 3004 3010 3019 3024 3027 3038 3050 3059 3067 3075 3082 3088 3096 3102 3108 3115 3121 3126 3130 3135 3139 3142 3145 3146 3149 3151 3153 3152
2929 2931 2937 2944 2950 2960 2968 2976 2982 2989 2997 3004 3013 3019 3021 3031 3039 3051 3061 3069 3076 3082 3089 3096 3101 3108 3115 3120 3125 3130 3134 3138 3140 3143 3145 3147 3150 3150
2916 2921 2927 2933 2941 2950 2958 2966 2972 2980 2989 2996 3004 3013 3017 3024 3035 3041 3051 3060 3066 3073 3081 3088 3095 3101 3107 3113 3120 3125 3129 3133 3136 3138 3141 3143 3146 3147
2908 2912 2917 2921 2929 2938 2947 2956 2963 2971 2981 2989 2997 3008 3011 3018 3023 3032 3041 3052 3059 3066 3073 3078 3085 3091 3099 3104 3112 3117 3122 3126 3130 3133 3136 3139 3141 3143
2899 2902 2906 2911 2917 2927 2935 2945 2953 2963 2971 2980 2990 2999 3006 3012 3019 3024 3033 3040 3049 3057 3064 3070 3076 3082 3090 3098 3106 3109 3113 3120 3124 3128 3130 3134 3136 3138
2888 2892 2897 2902 2908 2915 2924 2934 2943 2953 2962 2971 2979 2988 2997 3004 3011 3018 3024 3033 3041 3049 3058 3063 3068 3077 3086 3092 3098 3102 3106 3114 3118 3122 3125 3128 3131 3133
2877 2881 2885 2892 2898 2906 2913 2923 2932 2942 2952 2962 2969 2979 2988 2995 3002 3008 3016 3029 3037 3042 3050 3053 3062 3070 3077 3083 3090 3096 3102 3107 3111 3116 3120 3122 3125 3128
2865 2871 2876 2882 2889 2897 2904 2911 2920 2930 2940 2949 2960 2969 2979 2984 2991 2998 3007 3016 3022 3029 3037 3046 3054 3061 3068 3075 3083 3088 3095 3100 3104 3108 3112 3115 3119 3122
2854 2860 2866 2872 2879 2886 2892 2901 2908 2917 2928 2937 2948 2957 2963 2974 2981 2989 2997 3004 3012 3018 3027 3036 3043 3050 3057 3066 3073 3078 3085 3090 3095 3100 3105 3109 3112 3116
2842 2847 2854 2860 2868 2874 2881 2889 2898 2907 2916 2926 2936 2945 2952 2961 2967 2979 2986 2994 3000 3009 3020 3026 3033 3043 3051 3059 3066 3071 3077 3083 3086 3092 3097 3102 3103 3109
2831 2835 2840 2849 2855 2862 2868 2877 2886 2895 2902 2911 2921 2932 2940 2950 2959 2966 2975 2983 2991 3000 3010 3017 3025 3033 3040 3049 3055 3064 3068 3074 3079 3085 3089 3095 3097 3102
2820 2825 2828 2835 2842 2849 2855 2862 2871 2880 2888 2896 2906 2918 2927 2936 2947 2954 2962 2971 2981 2989 2997 3005 3015 3024 3031 3040 3048 3056 3061 3066 3072 3077 3081 3087 3090 3093
2810 2816 2820 2824 2829 2834 2842 2848 2856 2863 2872 2880 2890 2902 2912 2923 2932 2941 2948 2958 2968 2978 2986 2995 3003 3012 3020 3029 3038 3043 3050 3053 3063 3069 3073 3077 3081 3084
2799 2803 2807 2811 2816 2821 2827 2834 2841 2849 2856 2866 2877 2886 2895 2905 2917 2925 2934 2941 2951 2966 2974 2984 2992 3000 3010 3018 3024 3031 3038 3044 3053 3058 3063 3067 3071 3075
2786 2791 2796 2800 2805 2811 2817 2824 2831 2838 2847 2856 2865 2873 2882 2890 2901 2910 2919 2929 2938 2949 2960 2971 2979 2985 2996 3000 3012 3017 3023 3032 3040 3047 3054 3056 3061 3065
2774 2780 2786 2791 2797 2803 2810 2817 2824 2830 2837 2844 2851 2861 2869 2877 2886 2896 2904 2915 2925 2935 2944 2959 2963 2971 2981 2986 2997 3005 3014 3022 3031 3036 3042 3047 3052 3057
2767 2774 2779 2785 2791 2797 2802 2807 2813 2820 2827 2833 2838 2846 2854 2861 2870 2880 2889 2899 2910 2921 2930 2940 2948 2955 2965 2974 2981 2997 3011 3015 3019 3026 3033 3038 3043 3045
2761 2765 2771 2776 2781 2785 2791 2796 2801 2806 2811 2818 2824 2831 2838 2847 2855 2865 2874 2883 2895 2904 2913 2921 2934 2950 2960 2966 2973 2986 2996 3001 3011 3017 3023 3027 3031 3035
2752 2755 2760 2764 2768 2774 2778 2782 2788 2792 2797 2802 2809 2815 2822 2829 2838 2849 2857 2865 2876 2888 2899 2909 2922 2931 2940 2950 2958 2971 2982 2991 2998 3003 3010 3014 3020 3025
2742 2745 2748 2751 2754 2758 2763 2768 2772 2777 2782 2788 2793 2800 2806 2812 2821 2830 2839 2849 2858 2870 2884 2893 2901 2913 2925 2937 2949 2956 2968 2977 2984 2990 2996 3001 3008 3017